Regional Weather Roundup
Issued by NWS

Home | Current Version | Previous Version | Graphics & Text | Print | Product List | Glossary On
Versions: 1 2 3 4 5 6 7 8 9 10 11 12 13 14 15 16 17 18 19 20 21 22 23 24 25 26 27 28
000
ASUS45 KTFX 201810
RWRMT
MONTANA REGIONAL WEATHER ROUNDUP
NATIONAL WEATHER SERVICE GREAT FALLS MT
1200 PM MDT THU JUL 20 2017

NOTE: "FAIR" INDICATES FEW OR NO CLOUDS BELOW 12000 FEET WITH NO
SIGNIFICANT WEATHER AND/OR OBSTRUCTIONS TO VISIBILITY.

MTZ001>007-043-201900-
WEST OF THE DIVIDE

CITY           SKY/WX    TMP DP  RH WIND       PRES   REMARKS
KALISPELL      SUNNY     80  47  31 VRB6      29.95F
MISSOULA       SUNNY     81  43  26 W9        29.98F
BUTTE          SUNNY     84  19   9 SW13      30.09F
MULLAN PASS    SUNNY     61  41  47 VRB5      30.18R
ANACONDA         N/A     86  25  10 S20G25    30.04R
DEER LODGE       N/A     82  43  24 NE6       30.02F
EUREKA           N/A     75  43  31 MISG      29.96S
HAMILTON         N/A     75  45  33 N7        30.01R
LIBBY            N/A     81  41  24 CALM      29.96S
PLAINS           N/A     82  44  26 CALM      29.98F
$$

MTZ008-052>055-201900-
SOUTHWEST MONTANA

CITY           SKY/WX    TMP DP  RH WIND       PRES   REMARKS
BOZEMAN        SUNNY     85  39  19 N3        30.03F
DILLON         SUNNY     83  37  19 CALM      30.07F
W YELLOWSTONE  CLOUDY    68  45  42 SW12      30.27R
ENNIS          SUNNY     86  32  14 S17G24    30.12F
THREE FORKS      N/A     85  42  22 E6        30.01F
TWIN BRIDGES     N/A     80  43  27 CALM      30.04F
$$

MTZ009-010-012-014-046-048-049-054-201900-
EAST SLOPES AND CENTRAL MONTANA

CITY           SKY/WX    TMP DP  RH WIND       PRES   REMARKS
CUT BANK       SUNNY     82  37  20 NE8       29.94F
GREAT FALLS    SUNNY     85  33  15 SW7       29.93F
HELENA         SUNNY     86  44  23 VRB5      29.96F
CHOTEAU          N/A     84  36  17 VRB3G12   29.96S
CONRAD           N/A     84  42  22 NE3       29.96F
$$

MTZ011-013-016-021-045-047-050-051-201900-
NORTH CENTRAL MONTANA

CITY           SKY/WX    TMP DP  RH WIND       PRES   REMARKS
HAVRE          SUNNY     93  34  12 E14       29.87F
LEWISTOWN      SUNNY     87  37  17 VRB7      29.96F
N BAR RANCH      N/A     88  39  18 N6        29.99F
CHINOOK          N/A     86  50  28 E10       29.87F
$$

MTZ017>020-022>027-061-062-201900-
NORTHEAST MONTANA

CITY           SKY/WX    TMP DP  RH WIND       PRES   REMARKS
GLASGOW        SUNNY     93  36  13 NE20G29   29.84
JORDAN           N/A     93  55  27 VRB3      29.85F HX  91
SIDNEY         MOSUNNY   88  59  37 NE6       29.89F
WOLF POINT     CLOUDY    88  54  31 NE20G25   29.89F
MALTA          SUNNY     86  46  25 E16G22    29.86F
PLENTYWOOD       N/A     79  57  47 CALM      30.00R
SCOBEY           N/A     75  52  44 N8        29.93F
$$

MTZ028>42-056>058-201900-
SOUTHCENTRAL AND SOUTHEAST MONTANA

CITY           SKY/WX    TMP DP  RH WIND       PRES   REMARKS
BAKER          SUNNY     94  58  29 S21G30    29.95F HX  93
BILLINGS       PTSUNNY   86  47  25 SW8       29.95S
LIVINGSTON     SUNNY     91  37  15 SW23G29   30.03S
MILES CITY     SUNNY     98  50  19 S10       29.85F HX  95
BIG TIMBER     SUNNY     90  25   9 W18       30.04S
EKALAKA          N/A     92  57  30 SE14      29.96F HX  90
FORSYTH          N/A     93  54  26 W3        29.86F HX  91
LAUREL           N/A     86  40  19 SW6       29.96R
$$

REGIONAL REPORTS...DAKOTAS

CITY           SKY/WX    TMP DP  RH WIND       PRES   REMARKS
WILLISTON      SUNNY     92  53  26 VRB7      29.92F
MINOT          SUNNY     89  60  37 S15G22    29.95F
DICKINSON      MOSUNNY   91  61  36 S17G24    29.94F HX  91
BEACH            N/A     91  54  27 S12G23    29.97F
CROSBY           N/A     81  61  50 SE7G13    29.95F
TIOGA            N/A     82  61  47 SE12      29.97S
WATFORD CITY     N/A     88  61  40 E8G14     29.92F
BISMARCK       SUNNY     90  60  36 S12       29.98F
GRAND FORKS    MOSUNNY   80  58  46 NE5       30.00F
FARGO          SUNNY     84  59  42 NE6       30.00F
BUFFALO SD       N/A     93  59  31 S26G32    29.90F HX  92
RAPID CITY     SUNNY     93  58  30 SE16G22   30.04F HX  92
$$

REGIONAL REPORTS...WYOMING/IDAHO/WASHINGTON

CITY           SKY/WX    TMP DP  RH WIND       PRES   REMARKS
CODY           CLOUDY    91  43  18 E13       30.07S
YELLOWSTONE LA   N/A     59  53  80 CALM      30.37S
IDAHO FALLS    PTSUNNY   84  56  38 SW10      30.11F
BOISE          SUNNY     83  44  25 NW14      30.05S
SPOKANE        MOSUNNY   73  42  32 SW23G30   30.04R
$$

REGIONAL REPORTS...ALBERTA

CITY           SKY/WX    TMP DP  RH WIND       PRES   REMARKS
EDMONTON       MOSUNNY   70  59  68 E9        29.86F
CALGARY        PTSUNNY   68  45  42 SE5       29.89S
LETHBRIDGE     PTSUNNY   82  43  24 NW12G18   29.92S
MEDICINE HAT   MOSUNNY   84  48  28 S9        29.88F
WATERTON GATE    N/A     77  46  33 E7          N/A
CARDSTON         N/A     77  46  33 N6          N/A
MILK RIVER       N/A     86  43  22 NW6         N/A
$$

REGIONAL REPORTS...SASKATCHEWAN

CITY           SKY/WX    TMP DP  RH WIND       PRES   REMARKS
SWIFT CURRENT  SUNNY     84  50  30 S12       29.92S
REGINA         MOSUNNY   81  52  36 SE13      29.94F
SASKATOON      PTSUNNY   79  50  36 NE8       29.93F
CYPRESS HILLS    N/A     82  34  17 S9          N/A
VAL MARIE        N/A     75  54  46 NE10G17     N/A
ROCKGLEN         N/A     68  57  68 SE16G28     N/A
$$




USA.gov is the U.S. government's official web portal to all federal, state and local government web resources and services.